Station CRVA2 - 9454050 - Cordova, AK Image indicating link to RSS feed of recent meteorological observations for station CRVA2


Conditions at CRVA2 as of
(3:00 pm AKDT)
2300 GMT on 06/21/2024:
     

Click on the graph icon in the table below to see a time series plot of the last five days of that observation.

5-day plot - Wind Direction Wind Direction (WDIR): N ( 10 deg true )
5-day plot - Wind Speed Wind Speed (WSPD): 2.9 kts
5-day plot - Wind Gust Wind Gust (GST): 5.1 kts
5-day plot - Atmospheric Pressure Atmospheric Pressure (PRES):29.80 in
5-day plot - Pressure Tendency Pressure Tendency (PTDY):-0.04 in ( Falling )
5-day plot - Air Temperature Air Temperature (ATMP): 61.9 °F
5-day plot - Water Temperature Water Temperature (WTMP): 47.5 °F
5-day plot - Wind Speed at 10 Meters Wind Speed at 10 meters (WSPD10M): 3.9 kts
5-day plot - Wind Speed at 20 Meters Wind Speed at 20 meters (WSPD20M): 3.9 kts
5-day plot -  Wind Speed, Wind Gust and Atmospheric Pressure Combined plot of Wind Speed, Gust, and Air Pressure
NOS Water Level Observation Network Water Level
Previous observations
TIME
(AKDT)
5-day plot - Wind Direction
WDIR
 
5-day plot - Wind Speed
WSPD
kts
5-day plot - Wind Gust
GST
kts
5-day plot - Wave Height
WVHT
ft
5-day plot - Dominant Wave Period
DPD
sec
5-day plot - Average Wave Period
APD
sec
5-day plot - Mean Wave Direction
MWD
 
5-day plot - Atmospheric Pressure
PRES
in
5-day plot - Pressure Tendency
PTDY
in
5-day plot - Air Temperature
ATMP
°F
5-day plot - Water Temperature
WTMP
°F
5-day plot - Dew Point
DEWP
°F
5-day plot - Salinity
SAL
psu
5-day plot - Visibility
VIS
nmi
5-day plot - Tide (above MLLW)
TIDE
ft
2024-06-21 02:54 pmNNE 5.1 6.0----29.80- 61.5 48.4----
2024-06-21 02:48 pm-------29.80- 61.2 48.6----
2024-06-21 02:42 pm-------29.80- 61.3 48.9----
2024-06-21 02:36 pm-------29.80- 60.8 48.7----
2024-06-21 02:30 pmNNE 6.0 8.0----29.80- 61.3 48.4----
2024-06-21 02:24 pmNNE 7.0 8.0----29.80- 61.0 48.7----
2024-06-21 02:18 pmNNE 8.0 8.9----29.80- 60.4 48.7----
2024-06-21 02:12 pmNNE 7.0 8.0----29.80- 60.4 48.6----
2024-06-21 02:06 pmNNE 7.0 8.0----29.81- 60.4 48.7----
2024-06-21 02:00 pmNNE 7.0 7.0----29.81-0.04 60.1 48.7----
2024-06-21 01:54 pmNNE 6.0 7.0----29.81- 60.6 48.7----
2024-06-21 01:48 pmNNE 7.0 8.0----29.81- 60.8 48.7----
2024-06-21 01:42 pmNNE 7.0 8.0----29.81- 60.1 48.7----
2024-06-21 01:36 pmNNE 7.0 7.0----29.81- 59.5 49.1----
2024-06-21 01:30 pmNNE 7.0 7.0----29.81- 59.7 49.3----
2024-06-21 01:24 pmNNE 7.0 7.0----29.82- 59.7 49.5----
2024-06-21 01:18 pmNNE 6.0 7.0----29.82- 60.1 49.6----
2024-06-21 01:12 pmNNE 6.0 8.0----29.82- 60.1 49.6----
2024-06-21 01:06 pmNNE 7.0 8.0----29.82- 59.7 49.8----
2024-06-21 01:00 pmNNE 7.0 8.0----29.82-0.04 59.4 50.0----
2024-06-21 12:54 pmNNE 7.0 8.0----29.83- 59.2 50.0----
2024-06-21 12:48 pmNNE 5.1 6.0----29.83- 60.1 50.0----
2024-06-21 12:42 pmNNE 5.1 6.0----29.83- 59.5 50.0----
2024-06-21 12:36 pmNNE 5.1 7.0----29.83- 59.0 50.0----
2024-06-21 12:30 pmNNE 6.0 7.0----29.83- 58.1 50.0----
2024-06-21 12:24 pmNNE 7.0 7.0----29.83- 57.6 50.0----
2024-06-21 12:18 pmNNE 6.0 6.0----29.84- 57.7 50.0----
2024-06-21 12:12 pmNNE 6.0 6.0----29.84- 57.4 50.0----
2024-06-21 12:06 pmNNE 6.0 6.0----29.84- 56.8 50.2----
2024-06-21 12:00 pmNNE 5.1 5.1----29.84-0.02 57.9 50.0----
2024-06-21 11:54 amNNE 4.1 5.1----29.84- 58.5 50.2----
2024-06-21 11:48 amNNE 5.1 6.0----29.84- 57.4 50.2----
2024-06-21 11:42 amNNE 5.1 6.0----29.85- 56.8 50.0----
2024-06-21 11:36 amNNE 6.0 6.0----29.85- 56.1 49.8----
2024-06-21 11:30 am NE 2.9 2.9----29.85- 56.3 49.8----
2024-06-21 11:24 am NE 1.9 4.1----29.85- 56.5 49.8----
2024-06-21 11:18 amNNE 4.1 6.0----29.85- 55.2 50.0----
2024-06-21 11:12 amNNE 1.9 1.9----29.85- 58.1 50.0----
2024-06-21 11:06 am- 0.0 0.0----29.85- 59.5 50.0----
2024-06-21 11:00 am- 0.0 1.0----29.85-0.03 59.4 50.0----
2024-06-21 10:54 am- 0.0 1.9----29.85- 59.5 50.2----
2024-06-21 10:48 am W 1.0 1.9----29.85- 57.4 50.0----
2024-06-21 10:42 am- 0.0 1.9----29.85- 58.8 50.0----
2024-06-21 10:36 am- 0.0 1.9----29.85- 58.3 50.0----
2024-06-21 10:30 amNNE 1.0 1.9----29.85- 57.7 50.2----
2024-06-21 10:24 am- 0.0 1.0----29.85- 58.5 50.4----
2024-06-21 10:18 am- 0.0 1.9----29.85- 57.0 50.4----
2024-06-21 10:12 am NE 1.0 1.9----29.86- 56.3 50.4----
2024-06-21 10:06 am- 0.0 1.9----29.86- 56.7 50.5----
2024-06-21 10:00 amENE 1.9 2.9----29.86-0.02 55.4 50.7----
2024-06-21 09:54 amENE 1.9 2.9----29.86- 54.9 50.7----
2024-06-21 09:48 am- 0.0 1.9----29.86- 55.6 50.7----
2024-06-21 09:42 am SW 1.0 2.9----29.86- 54.5 50.7----
2024-06-21 09:36 am SW 4.1 4.1----29.86- 53.2 50.7----
2024-06-21 09:30 amWSW 2.9 4.1----29.86- 52.9 50.7----
2024-06-21 09:24 am SW 1.9 2.9----29.86- 53.2 50.7----
2024-06-21 09:18 am- 0.0 1.0----29.86- 54.0 50.7----
2024-06-21 09:12 am- 0.0 1.0----29.86- 54.0 50.7----
2024-06-21 09:06 am- 0.0 0.0----29.86- 55.4 50.7----
2024-06-21 09:00 am- 0.0 1.0----29.86-0.04 55.0 50.7----
2024-06-21 08:54 am- 0.0 1.9----29.86- 52.9 50.7----
2024-06-21 08:48 amNNE 1.9 1.9----29.86- 51.1 50.7----
2024-06-21 08:42 am- 0.0 1.0----29.86- 51.8 50.7----
2024-06-21 08:36 am- 0.0 1.9----29.87- 53.1 50.5----
2024-06-21 08:30 am- 0.0 0.0----29.87- 54.0 50.5----
2024-06-21 08:24 am- 0.0 0.0----29.87- 52.7 50.4----
2024-06-21 08:18 am- 0.0 1.0----29.87- 51.3 50.2----
2024-06-21 08:12 am NE 1.0 4.1----29.87- 50.2 50.0----
2024-06-21 08:06 amNNE 2.9 5.1----29.87- 49.8 50.0----
2024-06-21 08:00 amNNE 5.1 5.1----29.88-0.03 49.5 50.0----
2024-06-21 07:54 am N 4.1 5.1----29.88- 49.3 50.0----
2024-06-21 07:48 am N 4.1 4.1----29.87- 49.1 50.0----
2024-06-21 07:42 am N 4.1 5.1----29.87- 49.3 49.8----
2024-06-21 07:36 am N 5.1 5.1----29.88- 49.3 49.8----
2024-06-21 07:30 amNNE 2.9 5.1----29.88- 50.4 49.8----
2024-06-21 07:24 amNNE 5.1 6.0----29.88- 49.3 49.8----
2024-06-21 07:18 amNNE 5.1 5.1----29.88- 49.5 49.8----
2024-06-21 07:12 am NE 1.9 4.1----29.88- 51.4 49.8----
2024-06-21 07:06 am NE 4.1 6.0----29.88- 50.4 49.8----
2024-06-21 07:00 am NE 5.1 7.0----29.88-0.04 49.1 49.8----
2024-06-21 06:54 amNNE 6.0 7.0----29.88- 48.7 49.8----
2024-06-21 06:48 am N 6.0 7.0----29.89- 48.2 49.8----
2024-06-21 06:42 amNNE 6.0 6.0----29.89- 48.4 49.8----
2024-06-21 06:36 amNNE 6.0 6.0----29.89- 48.4 49.8----
2024-06-21 06:30 amNNE 5.1 6.0----29.89- 48.6 49.8----
2024-06-21 06:24 amNNE 1.9 4.1----29.89- 49.3 49.8----
2024-06-21 06:18 am NE 2.9 5.1----29.89- 48.6 49.8----
2024-06-21 06:12 am NE 4.1 5.1----29.90- 48.0 49.8----
2024-06-21 06:06 am NE 2.9 5.1----29.90- 48.2 49.8----
2024-06-21 06:00 am NE 1.0 2.9----29.90-0.03 48.2 49.8----
2024-06-21 05:54 amNNE 1.9 2.9----29.90- 48.0 49.8----
2024-06-21 05:48 am- 0.0 1.9----29.90- 48.2 49.8----
2024-06-21 05:42 amNNE 1.0 1.9----29.90- 47.8 49.8----
2024-06-21 05:36 am- 0.0 1.9----29.90- 47.7 49.8----
2024-06-21 05:30 am- 0.0 1.9----29.90- 47.8 49.8----
2024-06-21 05:24 am- 0.0 1.0----29.90- 47.8 49.6----
2024-06-21 05:18 am- 0.0 1.0----29.91- 48.0 49.6----
2024-06-21 05:12 amNNE 1.0 1.9----29.91- 48.0 49.6----
2024-06-21 05:06 am- 0.0 1.9----29.91- 48.0 49.5----
2024-06-21 05:00 am N 1.0 1.9----29.91-0.04 48.2 49.5----
2024-06-21 04:54 am- 0.0 1.0----29.91- 48.2 49.5----
2024-06-21 04:48 am- 0.0 1.9----29.91- 48.0 49.3----
2024-06-21 04:42 am N 1.9 1.9----29.91- 48.4 49.3----
2024-06-21 04:36 am NE 1.9 2.9----29.91- 48.4 49.5----
2024-06-21 04:30 am N 1.9 1.9----29.91- 48.6 49.3----
2024-06-21 04:24 am- 0.0 2.9----29.91- 48.7 49.3----
2024-06-21 04:18 am N 1.9 2.9----29.91- 48.7 49.1----
2024-06-21 04:12 amENE 1.9 1.9----29.92- 48.4 49.1----
2024-06-21 04:06 amNNE 2.9 2.9----29.92- 48.4 48.9----
2024-06-21 04:00 amWNW 1.0 1.9----29.92-0.04 49.1 48.6----
2024-06-21 03:54 am- 0.0 0.0----29.92- 49.3 48.2----
2024-06-21 03:48 am- 0.0 0.0----29.92- 49.5 48.0----
2024-06-21 03:42 am- 0.0 2.9----29.92- 49.3 48.0----
2024-06-21 03:36 am NE 2.9 2.9----29.93- 49.1 47.8----
2024-06-21 03:30 am- 0.0 0.0----29.93- 49.6 47.7----
2024-06-21 03:24 am- 0.0 1.9----29.93- 49.6 47.5----
2024-06-21 03:18 am NE 1.9 1.9----29.93- 49.3 47.3----
2024-06-21 03:12 am NE 1.9 4.1----29.93- 49.1 47.5----
2024-06-21 03:06 am NE 1.9 4.1----29.93- 49.1 47.5----
2024-06-21 03:00 amENE 2.9 4.1----29.93-0.04 49.3 47.7----
2024-06-21 02:54 amENE 1.0 1.9----29.93- 50.0 47.7----
2024-06-21 02:48 amENE 2.9 4.1----29.93- 49.5 47.7----
2024-06-21 02:42 am- 0.0 1.9----29.94- 50.2 47.3----
2024-06-21 02:36 am- 0.0 2.9----29.94- 50.5 46.9----
2024-06-21 02:30 amENE 1.9 4.1----29.94- 50.2 46.9----
2024-06-21 02:24 am E 1.9 2.9----29.94- 50.0 46.9----
2024-06-21 02:18 amENE 1.9 2.9----29.94- 50.5 46.8----
2024-06-21 02:12 amENE 1.0 2.9----29.94- 50.7 46.9----
2024-06-21 02:06 amENE 1.9 1.9----29.95- 50.7 46.9----
2024-06-21 02:00 am E 1.0 4.1----29.95-0.02 50.5 46.8----
2024-06-21 01:54 am E 1.9 2.9----29.95- 50.5 46.6----
2024-06-21 01:48 amNNW 2.9 2.9----29.95- 50.4 46.6----
2024-06-21 01:42 am W 2.9 6.0----29.95- 50.7 46.9----
2024-06-21 01:36 am W 1.0 4.1----29.95- 51.4 46.8----
2024-06-21 01:30 amSSW 1.9 4.1----29.95- 51.1 47.7----
2024-06-21 01:24 am S 1.0 4.1----29.95- 51.4 47.8----
2024-06-21 01:18 amESE 1.0 1.9----29.96- 51.4 47.8----
2024-06-21 01:12 amENE 2.9 5.1----29.96- 50.5 47.8----
2024-06-21 01:06 amENE 1.9 2.9----29.96- 51.8 48.0----
2024-06-21 01:00 amESE 1.0 1.9----29.96-0.02 50.9 48.0----
2024-06-21 12:54 am NE 1.9 4.1----29.96- 50.4 48.4----
2024-06-21 12:48 amENE 2.9 4.1----29.96- 50.2 48.4----
2024-06-21 12:42 am NE 1.9 2.9----29.96- 50.5 48.7----
2024-06-21 12:36 am NE 2.9 4.1----29.96- 49.6 48.6----
2024-06-21 12:30 am- 0.0 0.0----29.96- 50.4 48.4----
2024-06-21 12:24 am- 0.0 1.0----29.97- 50.5 48.4----
2024-06-21 12:18 am- 0.0 1.9----29.97- 50.5 48.4----
2024-06-21 12:12 amSSW 1.9 1.9----29.97- 50.4 48.4----
2024-06-21 12:06 am- 0.0 0.0----29.97- 50.7 48.4----
2024-06-21 12:00 am- 0.0 1.0----29.97-0.01 50.7 48.2----
2024-06-20 11:54 pm- 0.0 1.0----29.97- 51.1 48.2----
2024-06-20 11:48 pm- 0.0 1.0----29.97- 51.3 48.2----
2024-06-20 11:42 pm- 0.0 0.0----29.97- 51.4 48.2----
2024-06-20 11:36 pm- 0.0 2.9----29.97- 51.3 48.9----
2024-06-20 11:30 pm- 0.0 1.0----29.97- 51.6 49.1----
2024-06-20 11:24 pm- 0.0 2.9----29.97- 52.2 49.3----
2024-06-20 11:18 pmSSE 1.9 2.9----29.97- 52.2 49.5----
2024-06-20 11:12 pmSSE 1.0 1.9----29.97- 52.2 49.6----
2024-06-20 11:06 pm- 0.0 1.9----29.97- 52.0 49.6----
2024-06-20 11:00 pm NE 1.0 1.9----29.97-0.02 52.2 50.0----
2024-06-20 10:54 pmENE 1.9 2.9----29.97- 52.7 50.2----
2024-06-20 10:48 pm E 1.0 1.9----29.98- 52.5 50.4----
2024-06-20 10:42 pmENE 1.0 1.9----29.98- 52.3 50.4----
2024-06-20 10:36 pmENE 1.9 1.9----29.98- 52.2 50.5----
2024-06-20 10:30 pmENE 1.9 2.9----29.98- 52.3 50.5----
2024-06-20 10:24 pmENE 1.9 2.9----29.98- 52.5 50.5----
2024-06-20 10:18 pmENE 2.9 2.9----29.98- 52.5 50.7----
2024-06-20 10:12 pmENE 1.9 2.9----29.98- 53.2 50.5----
2024-06-20 10:06 pmENE 2.9 4.1----29.98- 53.2 50.5----
2024-06-20 10:00 pmENE 1.9 2.9----29.98-0.01 52.9 50.9----
2024-06-20 09:54 pm- 0.0 2.9----29.98- 53.6 50.7----
2024-06-20 09:48 pm NE 1.0 1.9----29.98- 53.1 50.7----
2024-06-20 09:42 pm- 0.0 1.0----29.98- 52.9 50.4----
2024-06-20 09:36 pm N 1.0 2.9----29.98- 53.1 50.2----
2024-06-20 09:30 pm N 2.9 4.1----29.98- 53.4 50.4----
2024-06-20 09:24 pm N 2.9 4.1----29.98- 53.4 50.4----
2024-06-20 09:18 pmNNE 2.9 4.1----29.98- 54.1 50.4----
2024-06-20 09:12 pm NE 2.9 4.1----29.98- 54.3 50.4----
2024-06-20 09:06 pm- 0.0 1.9----29.98- 55.0 50.4----
2024-06-20 09:00 pmESE 1.9 8.9----29.98-0.01 54.9 50.4----
2024-06-20 08:54 pm S 2.9 8.9----29.98- 54.3 50.4----
2024-06-20 08:48 pm E 5.1 9.9----29.99- 54.1 50.5----
2024-06-20 08:42 pmESE 4.1 8.0----29.99- 54.1 50.5----
2024-06-20 08:36 pm E 4.1 8.9----29.99- 54.0 50.7----
2024-06-20 08:30 pmESE 4.1 8.9----29.99- 54.1 50.7----
2024-06-20 08:24 pmENE 6.0 9.9----29.99- 54.0 50.7----
2024-06-20 08:18 pm E 5.1 9.9----29.99- 54.1 51.1----
2024-06-20 08:12 pmENE 2.9 8.0----29.99- 54.3 51.4----
2024-06-20 08:06 pmNNE 4.1 8.9----29.99- 54.1 51.6----
2024-06-20 08:00 pmSSW 4.1 7.0----29.99-0.01 54.3 51.6----
2024-06-20 07:54 pmESE 1.9 6.0----29.99- 54.7 51.8----
2024-06-20 07:48 pmSSE 2.9 7.0----29.99- 54.9 51.8----
2024-06-20 07:42 pmSSE 2.9 6.0----29.99- 55.0 51.8----
2024-06-20 07:36 pm SE 1.9 4.1----29.99- 55.2 51.6----
2024-06-20 07:30 pmESE 4.1 11.1----29.99- 55.0 51.6----
2024-06-20 07:24 pm SE 5.1 9.9----29.99- 55.0 51.4----
2024-06-20 07:18 pmSSE 2.9 7.0----29.99- 55.4 51.4----
2024-06-20 07:12 pm E 4.1 9.9----29.99- 55.2 51.4----
2024-06-20 07:06 pm NE 6.0 9.9----29.99- 55.0 51.3----
2024-06-20 07:00 pmENE 2.9 5.1----29.99-0.02 55.2 51.3----
2024-06-20 06:54 pmWSW 1.0 8.0----30.00- 54.9 51.3----
2024-06-20 06:48 pm W 6.0 8.0----29.99- 54.5 51.4----
2024-06-20 06:42 pmSSW 6.0 8.0----30.00- 54.5 51.4----
2024-06-20 06:36 pm S 1.9 11.1----30.00- 54.1 51.6----
2024-06-20 06:30 pmWSW 9.9 12.0----29.99- 53.8 51.6----
2024-06-20 06:24 pm SW 8.0 9.9----29.99- 54.0 51.6----
2024-06-20 06:18 pm SW 6.0 8.9----29.99- 54.0 51.6----
2024-06-20 06:12 pm SW 6.0 8.9----29.99- 54.0 51.4----
2024-06-20 06:06 pm SW 4.1 8.0----29.99- 54.3 51.4----
2024-06-20 06:00 pmSSW 5.1 7.0----29.99-0.04 54.0 51.4----
2024-06-20 05:54 pm SW 4.1 7.0----29.99- 54.0 51.3----
2024-06-20 05:48 pm SW 5.1 7.0----29.99- 54.0 51.3----
2024-06-20 05:42 pm SW 5.1 7.0----29.99- 53.8 50.9----
2024-06-20 05:36 pmSSW 6.0 8.9----30.00- 53.6 50.9----
2024-06-20 05:30 pm SW 6.0 9.9----30.00- 53.6 50.9----
2024-06-20 05:24 pm SW 5.1 8.9----30.00- 53.8 50.7----
2024-06-20 05:18 pm SW 7.0 11.1----30.00- 53.6 50.7----
2024-06-20 05:12 pm SW 8.0 13.0----30.00- 53.4 50.5----
2024-06-20 05:06 pm SW 8.0 11.1----30.00- 53.6 50.4----
2024-06-20 05:00 pm SW 8.0 9.9----30.00-0.04 53.4 50.2----
2024-06-20 04:54 pm SW 8.0 9.9----30.00- 53.6 50.2----
2024-06-20 04:48 pm SW 8.0 11.1----30.01- 53.8 49.8----
2024-06-20 04:42 pm SW 7.0 9.9----30.01- 53.4 49.8----
2024-06-20 04:36 pm SW 7.0 8.9----30.01- 53.8 49.6----
2024-06-20 04:30 pm SW 7.0 8.9----30.01- 53.4 49.5----
2024-06-20 04:24 pm SW 7.0 9.9----30.01- 53.2 49.5----
2024-06-20 04:18 pm SW 8.0 11.1----30.01- 52.7 49.3----
2024-06-20 04:12 pmWSW 8.0 9.9----30.01- 52.3 49.3----
2024-06-20 04:06 pmWSW 8.0 9.9----30.01- 52.7 49.3----
2024-06-20 04:00 pm SW 5.1 8.9----30.01-0.03 54.0 49.3----
2024-06-20 03:54 pmSSW 6.0 8.0----30.01- 54.0 49.3----
2024-06-20 03:48 pmSSW 5.1 8.9----30.01- 54.0 49.3----
2024-06-20 03:42 pmSSW 5.1 11.1----30.01- 53.8 49.1----
2024-06-20 03:36 pm SW 7.0 9.9----30.02- 52.7 49.1----
2024-06-20 03:30 pm SW 6.0 9.9----30.02- 52.9 49.3----
2024-06-20 03:24 pm SW 8.9 11.1----30.02- 53.1 49.3----
2024-06-20 03:18 pm SW 8.9 11.1----30.03- 53.4 49.5----
2024-06-20 03:12 pmWSW 9.9 12.0----30.03- 52.7 49.5----
2024-06-20 03:06 pmWSW 9.9 11.1----30.03- 52.7 48.7----
2024-06-20 03:00 pm SW 8.9 12.0----30.03+0.00 53.2 47.8----
2024-06-20 02:54 pm SW 7.0 9.9----30.03- 53.4 48.0----